Flag for Chile Weather past 2 weeks in Santiago, Chile

Now
50 °F

Passing clouds.


Feels Like: 48 °F
Forecast: 36 / 59 °F
Wind: 5 mph from Southwest

Location: Pudahuel

Current Time: Jul 25, 2014 at 12:58:14 PM

Latest Report: Jul 25, 2014 at 12:00 PM


Visibility: 5 mi

Pressure: 30.12 "Hg

Humidity: 50%

Dew point: 32 °F

Location of SantiagoLocation

Historic Weather in Santiago — Graph

°F

Santiago temperature yesterday

Maximum temperature yesterday: 57 °F (at 4:00 PM)
Minimum temperature yesterday: 30 °F (at 8:00 AM)
Average temperature yesterday: 43 °F

Past Weeks' High & Low Weather Summary

 TemperatureHumidityPressure
High73 °F (Jul 18, 4:00 PM)93% (Jul 11, 5:00 AM)30.36 "Hg (Jul 11, 5:00 AM)
Low30 °F (Jul 24, 8:00 AM)18% (Jul 13, 4:00 PM)29.86 "Hg (Jul 10, 1:00 PM)
Average48 °F74%30.09 "Hg
* Reported Jul 10 12:00 Noon — Jul 25 12:00 Noon, Santiago, Weather by CustomWeather, © 2014

Note: Actual official high and low records may vary slightly from our data, if they occured in-between our weather recording intervals... More about our weather records

Advertising

Santiago weather history for previous 24 hours

 ConditionsComfort  
Time TempWeatherWind HumidityBarometerVisibility
12:00 PM
Jul 25
50 °FPassing clouds.5 mph50%30.12 "Hg5 mi
11:00 AM46 °FPassing clouds.1 mph62%30.15 "Hg4 mi
10:00 AM41 °FPassing clouds.5 mph66%30.15 "Hg4 mi
9:00 AM37 °FPartly sunny.5 mph75%30.15 "Hg4 mi
8:00 AM37 °FPartly sunny.1 mph75%30.15 "Hg3 mi
7:00 AM36 °FPartly sunny.3 mph81%30.12 "Hg4 mi
6:00 AM34 °FPassing clouds.5 mph81%30.12 "Hg4 mi
5:00 AM32 °FPassing clouds.2 mph80%30.12 "Hg4 mi
4:00 AM36 °FPassing clouds.2 mph81%30.12 "Hg4 mi
3:00 AM37 °FPassing clouds.2 mph75%30.12 "Hg5 mi
2:00 AM37 °FPassing clouds.3 mph81%30.15 "Hg4 mi
1:00 AM37 °FPassing clouds.1 mph75%30.15 "Hg4 mi
12:00 AM37 °FPassing clouds.No wind70%30.18 "Hg5 mi
11:00 PM
Jul 24
37 °FClear.3 mph75%30.18 "Hg5 mi
10:00 PM43 °FClear.1 mph66%30.18 "Hg10 mi
9:00 PM45 °FClear.2 mph61%30.18 "Hg10 mi
8:00 PM48 °FClear.5 mph54%30.21 "Hg10 mi
7:00 PM48 °FClear.3 mph54%30.18 "Hg10 mi
6:00 PM52 °FClear.9 mph50%30.18 "Hg10 mi
5:00 PM57 °FPassing clouds.3 mph33%30.18 "HgN/A
4:00 PM57 °FPassing clouds.5 mph33%30.18 "HgN/A
3:00 PM55 °FPassing clouds.5 mph33%30.21 "HgN/A
2:00 PM54 °FSunny.3 mph41%30.24 "Hg5 mi
1:00 PM52 °FSunny.1 mph50%30.27 "Hg4 mi
12:00 PM48 °FSunny.2 mph66%30.30 "Hg4 mi
Weather by CustomWeather, © 2014

See weather overviewHow to use our weather pages